Flag for U.S.A. Weather past 2 weeks in Spokane, Washington, U.S.A.

Now
82 °F

Passing clouds.


Feels Like: 81 °F
Forecast: 55 / 82 °F
Wind: 7 mph from East

Location: Felts Field

Current Time: May 29, 2015 at 4:12:54 PM

Latest Report: May 29, 2015 at 3:53 PM


Visibility: 10 mi

Pressure: 29.90 "Hg

Humidity: 33%

Dew point: 50 °F

Location of SpokaneLocation

Historic Weather in Spokane — Graph

°F

Spokane temperature yesterday

Maximum temperature yesterday: 80 °F (at 3:53 PM)
Minimum temperature yesterday: 56 °F (at 5:53 AM)
Average temperature yesterday: 66 °F

Past Weeks' High & Low Weather Summary

 TemperatureHumidityPressure
High84 °F (May 23, 3:53 PM)96% (May 27, 5:00 AM)30.10 "Hg (May 27, 5:00 AM)
Low46 °F (May 15, 4:53 AM)15% (May 23, 3:53 PM)29.62 "Hg (May 15, 5:53 PM)
Average64 °F57%29.91 "Hg
* Reported May 14 2:53 PM — May 29 2:53 PM, Spokane, Weather by CustomWeather, © 2015

Note: Actual official high and low records may vary slightly from our data, if they occured in-between our weather recording intervals... More about our weather records

Advertising

Spokane weather history for previous 24 hours

 ConditionsComfort  
Time TempWeatherWind HumidityBarometerVisibility
2:53 PM
Fri, May 29
80 °FPassing clouds.6 mph34%29.93 "Hg10 mi
1:53 PM80 °FSunny.N/A34%29.95 "Hg10 mi
12:53 PM79 °FSunny.8 mph36%29.97 "Hg10 mi
11:53 AM77 °FSunny.8 mph40%29.99 "Hg10 mi
10:53 AM74 °FSunny.9 mph46%30.01 "Hg10 mi
9:53 AM70 °FSunny.6 mph53%30.02 "Hg10 mi
8:53 AM66 °FSunny.No wind65%30.03 "Hg10 mi
7:53 AM61 °FSunny.3 mph75%30.05 "Hg10 mi
6:53 AM59 °FSunny.3 mph78%30.05 "Hg10 mi
5:53 AM56 °FClear.No wind90%30.05 "Hg10 mi
4:53 AM54 °FClear.No wind93%30.04 "Hg10 mi
3:53 AM55 °FClear.No wind90%30.03 "Hg10 mi
2:53 AM56 °FClear.No wind90%30.04 "Hg10 mi
1:53 AM57 °FClear.No wind90%30.04 "Hg10 mi
12:53 AM58 °FClear.3 mph84%30.05 "Hg10 mi
11:53 PM
Thu, May 28
58 °FClear.3 mph84%30.07 "Hg10 mi
10:53 PM59 °FClear.3 mph84%30.07 "Hg10 mi
9:53 PM61 °FClear.No wind75%30.07 "Hg10 mi
9:03 PM63 °FRain. Cloudy.10 mph75%30.08 "Hg8 mi
8:53 PM63 °FThunderstorms. Mostly cloudy.10 mph75%30.06 "Hg9 mi
7:53 PM65 °FPartly sunny.12 mph68%30.06 "Hg10 mi
7:02 PM68 °FThundershowers. Scattered clouds.6 mph70%30.06 "Hg10 mi
6:53 PM68 °FPassing clouds.3 mph65%30.03 "Hg7 mi
5:59 PM68 °FHeavy rain. Overcast.3 mph61%30.04 "Hg7 mi
4:53 PM80 °FBroken clouds.6 mph34%29.99 "Hg10 mi
Weather by CustomWeather, © 2015

See weather overviewHow to use our weather pages